When you browse on this site, cookies collect data to enhance your experience and personalize the content and advertising you see.
Visit our Privacy Policy to learn more. By continuing to use the site, you agree to this use of cookies and data.
  • In Portugal
  • List of Countries
  • For 7 days
  • Water Temperature
  • Weather Map
  • Weather Widgets
  • user-avatar
    Login

    Hourly Weather Nemkovo

    Today, 24 August, Saturday

    Time Temperature Precipitation Wind Pressure Humidity
    00:00 +13°C° 0 mm 2 mps 750 mmHg 92%
    01:00 +13°C° 0 mm 2 mps 750 mmHg 92%
    02:00 +13°C° 0 mm 2 mps 750 mmHg 93%
    03:00 +13°C° 0 mm 2 mps 750 mmHg 92%
    04:00 +12°C° 0 mm 3 mps 749 mmHg 91%
    05:00 +12°C° 0 mm 3 mps 749 mmHg 91%
    06:00 +13°C° 0 mm 3 mps 749 mmHg 85%
    07:00 +16°C° 0 mm 3 mps 749 mmHg 79%
    08:00 +17°C° 0 mm 4 mps 749 mmHg 74%
    09:00 +18°C° 0 mm 4 mps 749 mmHg 70%
    10:00 +19°C° 0 mm 4 mps 749 mmHg 66%
    11:00 +21°C° 0 mm 4 mps 749 mmHg 62%
    12:00 +21°C° 0.1 mm 4 mps 749 mmHg 62%
    13:00 +22°C° 0.1 mm 4 mps 748 mmHg 62%
    14:00 +22°C° 0.1 mm 4 mps 748 mmHg 63%
    15:00 +21°C° 0.2 mm 4 mps 748 mmHg 68%
    16:00 +21°C° 0.2 mm 3 mps 748 mmHg 73%
    17:00 +20°C° 0.2 mm 3 mps 748 mmHg 78%
    18:00 +19°C° 0 mm 2 mps 748 mmHg 83%
    19:00 +17°C° 0 mm 2 mps 748 mmHg 88%
    20:00 +15°C° 0 mm 1 mps 749 mmHg 93%
    21:00 +15°C° 0 mm 1 mps 749 mmHg 93%
    22:00 +14°C° 0 mm 1 mps 749 mmHg 93%
    23:00 +13°C° 0 mm 1 mps 749 mmHg 93%

    Tomorrow, 25 August, Sunday

    Time Temperature Precipitation Wind Pressure Humidity
    00:00 +13°C° 0 mm 1 mps 750 mmHg 94%
    01:00 +12°C° 0 mm 1 mps 750 mmHg 95%
    02:00 +12°C° 0 mm 1 mps 750 mmHg 96%
    03:00 +11°C° 0 mm 1 mps 750 mmHg 96%
    04:00 +11°C° 0 mm 1 mps 751 mmHg 97%
    05:00 +10°C° 0 mm 1 mps 751 mmHg 97%
    06:00 +11°C° 0 mm 1 mps 751 mmHg 92%
    07:00 +13°C° 0 mm 1 mps 751 mmHg 88%
    08:00 +14°C° 0 mm 2 mps 751 mmHg 83%
    09:00 +16°C° 0 mm 2 mps 752 mmHg 75%
    10:00 +18°C° 0 mm 2 mps 752 mmHg 68%
    11:00 +19°C° 0 mm 2 mps 752 mmHg 60%
    12:00 +21°C° 0 mm 1 mps 752 mmHg 57%
    13:00 +22°C° 0 mm 1 mps 752 mmHg 54%
    14:00 +23°C° 0 mm 1 mps 752 mmHg 51%
    15:00 +22°C° 0 mm 1 mps 752 mmHg 56%
    16:00 +22°C° 0 mm 1 mps 752 mmHg 60%
    17:00 +21°C° 0 mm 1 mps 752 mmHg 64%
    18:00 +19°C° 0 mm 1 mps 752 mmHg 71%
    19:00 +16°C° 0 mm 1 mps 752 mmHg 77%
    20:00 +14°C° 0 mm 1 mps 752 mmHg 83%
    21:00 +13°C° 0 mm 1 mps 752 mmHg 85%
    22:00 +13°C° 0 mm 1 mps 752 mmHg 86%
    23:00 +12°C° 0 mm 1 mps 752 mmHg 88%

    Day after tomorrow, 26 August, Monday

    Time Temperature Precipitation Wind Pressure Humidity
    00:00 +12°C° 0 mm 1 mps 752 mmHg 89%
    01:00 +10°C° 0 mm 0 mps 752 mmHg 91%
    02:00 +10°C° 0 mm 0 mps 752 mmHg 92%
    03:00 +10°C° 0 mm 0 mps 752 mmHg 93%
    04:00 +10°C° 0 mm 0 mps 752 mmHg 93%
    05:00 +10°C° 0 mm 0 mps 752 mmHg 93%
    06:00 +13°C° 0 mm 1 mps 752 mmHg 86%
    07:00 +15°C° 0 mm 1 mps 752 mmHg 79%
    08:00 +18°C° 0 mm 1 mps 752 mmHg 72%
    09:00 +19°C° 0 mm 1 mps 751 mmHg 67%
    10:00 +21°C° 0 mm 1 mps 751 mmHg 61%
    11:00 +21°C° 0 mm 2 mps 751 mmHg 55%
    12:00 +23°C° 0 mm 2 mps 751 mmHg 54%
    13:00 +23°C° 0 mm 2 mps 751 mmHg 52%
    14:00 +23°C° 0 mm 2 mps 750 mmHg 51%
    15:00 +23°C° 0 mm 2 mps 750 mmHg 56%
    16:00 +23°C° 0 mm 2 mps 749 mmHg 61%
    17:00 +22°C° 0 mm 1 mps 749 mmHg 66%
    18:00 +20°C° 0 mm 1 mps 749 mmHg 71%
    19:00 +19°C° 0 mm 1 mps 749 mmHg 77%
    20:00 +16°C° 0 mm 1 mps 748 mmHg 82%
    21:00 +15°C° 0 mm 1 mps 748 mmHg 84%
    22:00 +15°C° 0 mm 2 mps 748 mmHg 86%
    23:00 +15°C° 0 mm 2 mps 748 mmHg 88%

    27 August, Tuesday

    Time Temperature Precipitation Wind Pressure Humidity
    00:00 +15°C° 0 mm 2 mps 748 mmHg 91%
    01:00 +15°C° 0 mm 2 mps 748 mmHg 93%
    02:00 +14°C° 0 mm 2 mps 747 mmHg 95%
    03:00 +14°C° 0 mm 2 mps 747 mmHg 96%
    04:00 +14°C° 0 mm 2 mps 747 mmHg 97%
    05:00 +14°C° 0 mm 2 mps 747 mmHg 97%
    06:00 +15°C° 0 mm 2 mps 747 mmHg 93%
    07:00 +16°C° 0 mm 2 mps 747 mmHg 89%
    08:00 +17°C° 0 mm 2 mps 747 mmHg 85%
    09:00 +18°C° 0 mm 3 mps 747 mmHg 78%
    10:00 +19°C° 0 mm 3 mps 747 mmHg 71%
    11:00 +20°C° 0 mm 4 mps 748 mmHg 64%
    12:00 +21°C° 0 mm 4 mps 748 mmHg 59%
    13:00 +21°C° 0 mm 4 mps 748 mmHg 55%
    14:00 +21°C° 0 mm 4 mps 748 mmHg 50%
    15:00 +20°C° 0 mm 4 mps 748 mmHg 54%
    16:00 +20°C° 0 mm 3 mps 748 mmHg 58%
    17:00 +19°C° 0 mm 3 mps 748 mmHg 62%
    18:00 +17°C° 0 mm 3 mps 748 mmHg 69%
    19:00 +16°C° 0 mm 2 mps 749 mmHg 76%
    20:00 +14°C° 0 mm 2 mps 749 mmHg 83%
    21:00 +13°C° 0 mm 2 mps 749 mmHg 85%
    22:00 +12°C° 0 mm 2 mps 749 mmHg 87%
    23:00 +12°C° 0 mm 2 mps 750 mmHg 89%

    28 August, Wednesday

    Time Temperature Precipitation Wind Pressure Humidity
    00:00 +10°C° 0 mm 2 mps 750 mmHg 91%
    01:00 +10°C° 0 mm 1 mps 750 mmHg 92%
    02:00 +10°C° 0 mm 1 mps 750 mmHg 93%
    03:00 +9°C° 0 mm 1 mps 751 mmHg 92%
    04:00 +9°C° 0 mm 1 mps 751 mmHg 91%
    05:00 +9°C° 0 mm 1 mps 751 mmHg 90%
    06:00 +10°C° 0 mm 1 mps 751 mmHg 80%
    07:00 +12°C° 0 mm 1 mps 751 mmHg 71%
    08:00 +14°C° 0 mm 1 mps 752 mmHg 61%
    09:00 +15°C° 0 mm 1 mps 752 mmHg 58%
    10:00 +17°C° 0 mm 2 mps 752 mmHg 54%
    11:00 +18°C° 0 mm 2 mps 752 mmHg 51%
    12:00 +18°C° 0 mm 2 mps 752 mmHg 51%
    13:00 +19°C° 0 mm 2 mps 751 mmHg 51%
    14:00 +19°C° 0 mm 3 mps 751 mmHg 50%
    15:00 +19°C° 0 mm 2 mps 751 mmHg 54%
    16:00 +19°C° 0 mm 2 mps 751 mmHg 58%
    17:00 +18°C° 0 mm 2 mps 751 mmHg 62%
    18:00 +16°C° 0 mm 2 mps 751 mmHg 69%
    19:00 +14°C° 0 mm 1 mps 751 mmHg 77%
    20:00 +13°C° 0 mm 1 mps 751 mmHg 84%
    21:00 +12°C° 0 mm 1 mps 751 mmHg 84%
    22:00 +11°C° 0 mm 1 mps 751 mmHg 85%
    23:00 +11°C° 0 mm 1 mps 751 mmHg 86%

    29 August, Thursday

    Time Temperature Precipitation Wind Pressure Humidity
    00:00 +10°C° 0 mm 1 mps 751 mmHg 88%
    01:00 +10°C° 0 mm 1 mps 751 mmHg 90%
    02:00 +10°C° 0 mm 1 mps 751 mmHg 91%
    03:00 +8°C° 0 mm 0 mps 751 mmHg 92%
    04:00 +8°C° 0 mm 0 mps 751 mmHg 93%
    05:00 +8°C° 0 mm 0 mps 751 mmHg 93%
    06:00 +10°C° 0 mm 0 mps 751 mmHg 85%
    07:00 +12°C° 0 mm 0 mps 751 mmHg 77%
    08:00 +15°C° 0 mm 1 mps 751 mmHg 69%
    09:00 +16°C° 0 mm 0 mps 751 mmHg 64%
    10:00 +17°C° 0 mm 0 mps 751 mmHg 60%
    11:00 +19°C° 0 mm 0 mps 751 mmHg 55%
    12:00 +20°C° 0 mm 0 mps 751 mmHg 54%
    13:00 +22°C° 0 mm 1 mps 751 mmHg 54%
    14:00 +23°C° 0 mm 1 mps 750 mmHg 53%
    15:00 +22°C° 0 mm 1 mps 750 mmHg 57%
    16:00 +21°C° 0 mm 1 mps 750 mmHg 62%
    17:00 +21°C° 0 mm 1 mps 750 mmHg 66%
    18:00 +19°C° 0 mm 1 mps 750 mmHg 72%
    19:00 +15°C° 0 mm 0 mps 750 mmHg 77%
    20:00 +13°C° 0 mm 0 mps 750 mmHg 83%
    21:00 +13°C° 0 mm 0 mps 750 mmHg 84%
    22:00 +13°C° 0 mm 0 mps 750 mmHg 86%
    23:00 +12°C° 0 mm 0 mps 750 mmHg 88%
    Show more